[[{"header":{"parameterUnit":"m.s-1","parameterCategory":1,"la1":30.2991,"la2":30.254,"lo1":-89.0895,"lo2":-89.0444,"dy":0.0017,"dx":0.0017,"nx":28,"ny":28,"refTime":"2026-02-05T09:00:00:Z","depth":0,"parameterNumber":2,"parameterNumberName":"U-component_of_WINDS"},"data":[0,0,0,0,0,0,0,0,0,0,0,0,0,0,0,0,0,0,0,0,0,0,0,0,0,0,0,0,0,0,0,0,0,0,0,0,0,0,0,0,0,0,0,0,0,0,0,0,0,0,0,0,0,0,0,0,0,0,5.7496,5.7498,0,5.768,5.7683,5.7685,5.7595,5.759,5.7585,5.7581,5.7776,5.7786,5.7795,0,0,0,0,0,0,0,0,0,0,0,0,0,5.7069,5.7077,5.7495,5.7498,5.75,5.768,5.7683,5.7685,5.7596,5.759,5.7584,5.7578,5.7773,5.7785,5.7796,0,0,0,0,0,0,0,0,0,0,0,0,0,5.7254,5.708,5.7495,5.7477,5.7477,5.768,5.7683,5.7686,5.7597,5.759,5.7582,5.7576,5.777,5.7784,5.7798,5.8031,0,0,5.7842,5.7849,0,0,0,0,0,0,0,0,5.7244,5.727,5.7477,5.7478,5.7479,5.7607,5.7604,5.7802,5.7599,5.7552,5.758,5.7572,5.7726,5.7744,5.7795,5.804,5.8049,5.7844,5.7852,5.7859,5.7863,0,0,0,0,0,0,0,5.7231,5.7261,5.7569,5.748,5.7482,5.7461,5.7479,5.7641,5.7677,5.7555,5.7549,5.7572,5.7725,5.7781,5.7799,5.8051,5.7843,5.7856,5.7865,5.7871,5.8494,5.8502,0,0,0,0,0,0,5.7218,5.7251,5.7563,5.7574,5.7341,5.7474,5.7495,5.7573,5.7675,5.7684,5.7578,5.7567,5.776,5.7782,5.7805,5.8082,5.7858,5.7872,5.788,5.8487,5.8496,5.8505,0,0,0,0,0,0,5.7209,5.7247,5.7555,5.7411,5.7449,5.7489,5.7578,5.7581,5.7636,5.7692,5.7699,5.7627,5.7755,5.7785,5.7974,5.8088,5.7879,5.7892,5.8477,5.849,5.85,5.8639,0,0,0,0,0,0,5.7197,5.7244,5.7332,5.7414,5.7457,5.7721,5.7585,5.759,5.766,5.7648,5.774,5.7749,5.7751,5.7953,5.7989,5.8104,5.7903,5.8467,5.8483,5.8497,5.8625,5.8654,5.868,0,0,0,0,0,5.7183,5.7366,5.7337,5.7375,5.7568,5.7727,5.7752,5.775,5.767,5.7759,5.7795,5.7746,5.807,5.7973,5.8013,5.8134,5.846,5.8478,5.8496,5.8613,5.8649,5.8679,0,0,0,0,0,0,5.73,5.7377,5.7345,5.7561,5.7638,5.7712,5.7824,5.7789,5.7892,5.7876,5.7871,5.7892,5.8088,5.813,5.8022,5.8363,5.8253,5.8279,5.8328,5.8363,5.839,5.8375,5.7915,0,0,0,0,0,5.735,5.7472,5.7533,5.7717,5.7757,5.7785,5.7854,5.7845,5.7926,5.7959,5.8008,5.809,5.821,5.8289,5.8403,5.8631,5.8649,5.8734,5.8761,5.8783,5.8806,5.8927,5.8964,5.8563,5.8563,5.8562,0,0,5.7457,5.7514,5.7591,5.7742,5.7801,5.7928,5.7813,5.7953,5.8047,5.7981,5.8161,5.8201,5.8292,5.8501,5.8595,5.8542,5.8921,5.8806,5.8823,5.8834,5.8949,5.8987,5.9021,5.8575,5.8573,5.8571,0,0,5.7714,5.7771,5.7928,5.7989,5.8078,5.8094,5.8132,5.8212,5.8234,5.8415,5.8367,5.848,5.8688,5.8753,5.8814,5.9094,5.9052,5.9131,5.9275,5.9393,5.9424,5.9452,5.955,5.9585,5.9154,5.9154,5.9155,0,5.7836,5.8023,5.8015,5.8157,5.8224,5.8167,5.8327,5.8387,5.851,5.8558,5.8496,5.8752,5.881,5.9032,5.91,5.9152,5.9195,5.912,5.942,5.9448,5.9474,5.9567,5.9604,5.9163,5.9162,5.9161,5.916,0,5.8167,5.8297,5.8414,5.8531,5.8612,5.8763,5.8777,5.886,5.8844,5.8867,5.9051,5.9118,5.9242,5.9295,5.9283,5.9515,5.9479,5.9419,5.9308,5.9521,5.9608,5.9644,5.9176,5.9173,5.917,5.9168,0,0,5.8504,5.8611,5.8654,5.8705,5.8799,5.89,5.9048,5.9167,5.9238,5.9325,5.9448,5.9623,5.9567,5.9636,5.963,5.9734,5.9949,5.9661,5.9663,5.971,6.0207,6.0249,6.0291,5.9922,5.9929,5.9934,6.0198,0,5.8766,5.9022,5.9017,5.9255,5.9375,5.9322,5.9451,5.9523,5.9548,5.9654,5.9684,5.9807,5.9725,5.9765,5.9866,5.9901,6.0048,5.9882,6.0036,6.0042,6.0012,6.0337,6.0383,6.0629,6.0232,6.0238,6.0242,0,5.9106,5.92,5.9449,5.9522,5.9572,5.9687,5.9795,5.9897,5.9977,5.9989,6.0064,6.0041,6.0192,6.0077,6.0284,6.0171,6.0234,6.0261,6.027,6.0283,6.0154,6.0356,6.0708,6.0744,6.0297,6.0292,6.0288,0,5.9323,5.9513,5.9685,5.9731,5.9821,5.9903,5.9945,6.0018,6.0089,6.0184,6.023,6.0342,6.0404,6.0492,6.05,6.0416,6.0708,6.0594,6.072,6.072,6.0783,6.0779,6.1147,6.0828,6.0827,6.0827,6.0826,0,5.9615,5.9769,5.9783,5.9889,6.006,6.0054,6.0223,6.0258,6.0323,6.0435,6.0398,6.0505,6.051,6.0619,6.0627,6.0796,6.0825,6.0838,6.0838,6.084,6.0838,6.088,6.0862,6.0836,6.0834,6.0832,6.0831,0,5.9886,5.9902,6.0086,6.0155,6.0177,6.0299,6.0359,6.046,6.0481,6.0623,6.0657,6.0691,6.0817,6.0834,6.0984,6.0988,6.119,6.1174,6.1162,6.1159,6.1284,6.1271,6.169,6.1744,6.1392,6.1395,6.1398,0,6.007,6.0186,6.0267,6.0338,6.0383,6.0499,6.057,6.057,6.0646,6.0744,6.0833,6.0955,6.1053,6.1258,6.1297,6.141,6.1394,6.1533,6.1411,6.1408,6.1393,6.1385,6.1395,6.1556,6.156,6.1563,6.1566,0,6.0394,6.0395,6.0498,6.0604,6.0689,6.0773,6.0852,6.0913,6.0922,6.1009,6.1136,6.1212,6.1362,6.1483,6.1595,6.1639,6.1605,6.1604,6.1639,6.1641,6.1628,6.1634,6.1224,6.1594,6.1591,6.1589,6.1588,6.1587,6.0625,6.0725,6.0796,6.0911,6.097,6.1044,6.1141,6.1173,6.1279,6.1399,6.1393,6.1532,6.1608,6.1753,6.1806,6.1915,6.187,6.1921,6.1934,6.1946,6.1956,6.1613,6.1936,6.1936,6.1935,6.1934,6.1934,0,6.0944,6.0987,6.1093,6.1202,6.1293,6.1251,6.1335,6.1414,6.1537,6.161,6.1705,6.185,6.1967,6.2015,6.2129,6.2208,6.2195,6.2238,6.2231,6.2241,6.1992,6.1949,6.2247,6.2246,6.2246,6.2246,6.2246,6.2246,6.1121,6.1286,6.1296,6.149,6.1532,6.1666,6.1718,6.1786,6.1843,6.2006,6.2102,6.2131,6.2194,6.2312,6.2418,6.2429,6.2472,6.2521,6.2525,6.2291,6.2259,6.2229,6.2189,6.2531,6.2532,6.2765,6.2767,6.2769]},{"header":{"parameterUnit":"m.s-1","parameterCategory":1,"la1":30.2991,"la2":30.254,"lo1":-89.0895,"lo2":-89.0444,"dy":0.0017,"dx":0.0017,"nx":28,"ny":28,"refTime":"2026-02-05T09:00:00:Z","depth":0,"parameterNumber":3,"parameterNumberName":"V-component_of_WINDS"},"data":[0,0,0,0,0,0,0,0,0,0,0,0,0,0,0,0,0,0,0,0,0,0,0,0,0,0,0,0,0,0,0,0,0,0,0,0,0,0,0,0,0,0,0,0,0,0,0,0,0,0,0,0,0,0,0,0,0,0,2.7193,2.7194,0,2.7246,2.7246,2.7247,2.7213,2.7211,2.721,2.7208,2.7261,2.7264,2.7267,0,0,0,0,0,0,0,0,0,0,0,0,0,2.7061,2.7064,2.7193,2.7194,2.7194,2.7246,2.7246,2.7247,2.7213,2.7211,2.7209,2.7207,2.726,2.7263,2.7267,0,0,0,0,0,0,0,0,0,0,0,0,0,2.7116,2.7064,2.7193,2.7184,2.7183,2.7245,2.7246,2.7247,2.7213,2.7211,2.7209,2.7207,2.7259,2.7263,2.7267,2.7341,0,0,2.728,2.7282,0,0,0,0,0,0,0,0,2.7113,2.7121,2.7184,2.7184,2.7184,2.722,2.7219,2.7279,2.7214,2.7202,2.7208,2.7205,2.7249,2.7254,2.7269,2.7344,2.7346,2.7281,2.7283,2.7285,2.7287,0,0,0,0,0,0,0,2.7109,2.7119,2.7214,2.7185,2.7185,2.7176,2.7181,2.723,2.7238,2.7203,2.7201,2.7207,2.7249,2.7265,2.727,2.7347,2.7281,2.7285,2.7287,2.7289,2.7482,2.7484,0,0,0,0,0,0,2.7107,2.7116,2.7212,2.7215,2.7142,2.718,2.7186,2.7211,2.7238,2.7239,2.7209,2.7206,2.7259,2.7265,2.7272,2.7359,2.7285,2.7289,2.7292,2.7479,2.7482,2.7485,0,0,0,0,0,0,2.7104,2.7116,2.721,2.7165,2.7176,2.7185,2.7213,2.7213,2.723,2.7242,2.7243,2.7225,2.7257,2.7266,2.7324,2.736,2.7291,2.7295,2.7476,2.748,2.7483,2.7534,0,0,0,0,0,0,2.71,2.7115,2.7144,2.7166,2.7179,2.7262,2.7216,2.7216,2.7237,2.7233,2.7257,2.7259,2.7256,2.7317,2.7328,2.7365,2.7299,2.7473,2.7478,2.7482,2.7529,2.7539,2.7547,0,0,0,0,0,2.7096,2.7156,2.7146,2.7157,2.7215,2.7264,2.7272,2.7267,2.7241,2.7269,2.7277,2.7258,2.7354,2.7324,2.7335,2.7374,2.747,2.7476,2.7482,2.7525,2.7537,2.7547,0,0,0,0,0,0,2.7138,2.7159,2.7147,2.7217,2.7239,2.7258,2.7295,2.7281,2.7311,2.7305,2.7298,2.7304,2.7364,2.7375,2.734,2.7445,2.7408,2.7416,2.7437,2.7448,2.7457,2.7453,2.7302,0,0,0,0,0,2.7156,2.7195,2.721,2.727,2.7282,2.7286,2.7307,2.7302,2.7325,2.7334,2.7346,2.7368,2.7403,2.7426,2.7459,2.753,2.7534,2.7562,2.7571,2.7579,2.7586,2.7622,2.7634,2.7504,2.7503,2.7503,0,0,2.7193,2.7208,2.7233,2.7279,2.7295,2.7334,2.7294,2.7338,2.7366,2.734,2.7395,2.7405,2.7429,2.7493,2.7522,2.7503,2.7623,2.7586,2.7592,2.7595,2.7629,2.7642,2.7653,2.7507,2.7507,2.7506,0,0,2.7279,2.7296,2.7346,2.7363,2.7389,2.7391,2.7403,2.7424,2.7429,2.7484,2.7465,2.7498,2.7559,2.7576,2.7593,2.7684,2.7667,2.7694,2.7743,2.7778,2.7788,2.7797,2.7828,2.784,2.7702,2.7702,2.7702,0,2.7322,2.738,2.7374,2.7419,2.7439,2.7416,2.7466,2.7483,2.7518,2.7532,2.751,2.7585,2.76,2.7667,2.7688,2.7703,2.7716,2.7692,2.7787,2.7796,2.7805,2.7834,2.7846,2.7705,2.7704,2.7704,2.7704,0,2.743,2.7471,2.7509,2.7543,2.7566,2.7614,2.7614,2.7639,2.7631,2.7635,2.769,2.7706,2.7741,2.7757,2.775,2.7822,2.781,2.7788,2.7751,2.782,2.7848,2.7859,2.7709,2.7708,2.7707,2.7706,0,0,2.7547,2.7575,2.7589,2.7603,2.7628,2.7659,2.7704,2.7738,2.7759,2.7783,2.782,2.7871,2.7851,2.787,2.7864,2.7895,2.7964,2.7869,2.787,2.7885,2.8043,2.8059,2.8072,2.7953,2.7955,2.7956,2.804,0,2.7634,2.7714,2.7709,2.7783,2.782,2.7798,2.7837,2.7856,2.786,2.7891,2.7895,2.7931,2.7902,2.7913,2.7943,2.7949,2.7995,2.7943,2.7986,2.7988,2.798,2.8087,2.8104,2.8182,2.8051,2.8053,2.8054,0,2.7747,2.7774,2.7853,2.787,2.7885,2.7921,2.795,2.7981,2.8001,2.8002,2.8022,2.801,2.8054,2.8015,2.8075,2.804,2.8057,2.8062,2.8065,2.8069,2.8025,2.8092,2.8208,2.8219,2.8072,2.807,2.8069,0,2.7823,2.7879,2.7933,2.7945,2.7968,2.7993,2.8003,2.8021,2.8041,2.8067,2.8079,2.811,2.8126,2.815,2.8146,2.8118,2.8206,2.8167,2.8207,2.8207,2.8227,2.8226,2.8346,2.8239,2.8239,2.8239,2.8238,0,2.7921,2.7969,2.7967,2.8,2.8052,2.8045,2.8097,2.8105,2.812,2.8153,2.8136,2.8167,2.816,2.8191,2.8188,2.8237,2.8245,2.8246,2.8245,2.8248,2.8247,2.8259,2.8253,2.8242,2.8241,2.824,2.824,0,2.8015,2.8015,2.8072,2.8087,2.8092,2.8131,2.8144,2.8174,2.8176,2.8218,2.8227,2.8231,2.8265,2.8264,2.8304,2.8301,2.8362,2.8354,2.8355,2.8353,2.8393,2.8389,2.8524,2.8541,2.8424,2.8425,2.8426,0,2.8077,2.8113,2.8133,2.8153,2.8165,2.8199,2.8219,2.8213,2.8234,2.8259,2.8286,2.8319,2.8345,2.8401,2.8407,2.8436,2.8429,2.8474,2.8434,2.8434,2.8429,2.8426,2.8429,2.8482,2.8484,2.8485,2.8486,0,2.8187,2.8185,2.8215,2.8244,2.8268,2.8291,2.8312,2.833,2.8325,2.835,2.8385,2.8406,2.8445,2.8478,2.8506,2.8515,2.85,2.8498,2.8509,2.8512,2.8511,2.8511,2.8376,2.8495,2.8494,2.8494,2.8493,2.8493,2.8266,2.8297,2.8315,2.8348,2.8363,2.8382,2.8411,2.8416,2.8446,2.8478,2.8472,2.8511,2.8528,2.8563,2.8575,2.8605,2.8589,2.8605,2.8608,2.8612,2.8616,2.8506,2.861,2.861,2.861,2.8609,2.8609,0,2.8375,2.8384,2.8415,2.8444,2.847,2.8453,2.8474,2.8497,2.8531,2.8549,2.8574,2.8614,2.8645,2.8652,2.8681,2.8704,2.8697,2.8711,2.8709,2.8712,2.863,2.8617,2.8716,2.8716,2.8716,2.8716,2.8716,2.8716,2.8434,2.8484,2.8484,2.8541,2.855,2.8588,2.8602,2.8619,2.8633,2.8678,2.8703,2.8708,2.872,2.875,2.8777,2.8778,2.8789,2.8807,2.8805,2.8728,2.8718,2.8707,2.8695,2.8809,2.881,2.8884,2.8885,2.8885]}]]